VK2RZ Weather Reports


time (UTC)temp
C
wind
direction
speed
KPH
gust
KPH
rain 1hr
cm
rain 24hr
cm
rain mn
cm
humidity
%
barometer
mb
20260831035406 18 71 8.0 12.9 0.00 0.00 0.00 7 1029.1
20260831034406 18 57 8.0 12.9 0.00 0.00 0.00 7 1029.2
20260831033406 18 80 6.4 14.5 0.00 0.00 0.00 7 1029.4
20260831032406 18 82 9.7 17.7 0.00 0.00 0.00 7 1029.5
20260831031406 18 62 9.7 14.5 0.00 0.00 0.00 7 1029.5
20260831030405 18 99 4.8 12.9 0.00 0.00 0.00 7 1029.6
20260831025405 18 87 4.8 17.7 0.00 0.00 0.00 7 1029.7
20260831024405 18 12 11.3 14.5 0.00 0.00 0.00 7 1029.9
20260831023405 18 72 3.2 12.9 0.00 0.00 0.00 7 1029.9
20260831022405 18 65 11.3 16.1 0.00 0.00 0.00 7 1030.0
20260831021405 18 9 4.8 14.5 0.00 0.00 0.00 7 1030.1
20260831020405 18 47 3.2 17.7 0.00 0.00 0.00 7 1030.4
20260831015404 18 46 11.3 19.3 0.00 0.00 0.00 7 1030.5
20260831014404 18 33 12.9 17.7 0.00 0.00 0.00 6 1030.8
20260831013404 18 82 6.4 14.5 0.00 0.00 0.00 6 1030.9
20260831012404 18 94 9.7 12.9 0.00 0.00 0.00 6 1031.1
20260831011404 18 97 4.8 12.9 0.00 0.00 0.00 6 1031.1
20260831010404 18 60 6.4 11.3 0.00 0.00 0.00 7 1031.2
20260831005404 18 47 8.0 12.9 0.00 0.00 0.00 6 1031.2
20260831004404 18 43 11.3 12.9 0.00 0.00 0.00 6 1031.3
20260831003404 18 83 6.4 9.7 0.00 0.00 0.00 6 1031.3
20260831002404 18 29 6.4 12.9 0.00 0.00 0.00 6 1031.2
20260831001404 18 89 4.8 11.3 0.00 0.00 0.00 6 1031.1
20260831000404 18 37 3.2 8.0 0.00 0.00 0.00 6 1031.1
20260830235404 17 62 3.2 8.0 0.00 0.00 0.00 6 1031.2
20260830234404 17 39 3.2 6.4 0.00 0.00 0.00 6 1031.2
20260830233404 17 22 1.6 4.8 0.00 0.00 0.00 6 1031.3
20260830232404 16 354 1.6 11.3 0.00 0.00 0.00 7 1031.3
20260830231404 16 358 3.2 8.0 0.00 0.00 0.00 7 1031.3
20260830230404 16 0 0.0 8.0 0.00 0.00 0.00 7 1031.4
20260830225404 16 273 3.2 4.8 0.00 0.00 0.00 7 1031.4
20260830224404 15 274 3.2 6.4 0.00 0.00 0.00 7 1031.4
20260830223404 15 277 6.4 9.7 0.00 0.00 0.00 8 1031.3
20260830222404 15 282 3.2 9.7 0.00 0.00 0.00 8 1031.3
20260830221404 15 291 1.6 4.8 0.00 0.00 0.00 8 1031.3
20260830220404 14 291 1.6 6.4 0.00 0.00 0.00 8 1031.2
20260830215404 13 0 0.0 3.2 0.00 0.00 0.00 8 1031.1
20260830214404 13 290 3.2 9.7 0.00 0.00 0.00 8 1031.1
20260830213404 13 287 4.8 9.7 0.00 0.00 0.00 8 1030.9
20260830212404 12 293 6.4 6.4 0.00 0.00 0.00 8 1031.0
20260830211404 12 297 3.2 6.4 0.00 0.00 0.00 8 1031.0
20260830210403 12 0 0.0 6.4 0.00 0.00 0.00 9 1030.9
20260830205403 11 301 3.2 4.8 0.00 0.00 0.00 9 1030.8
20260830204403 11 300 1.6 8.0 0.00 0.00 0.00 9 1030.7
20260830203403 11 301 4.8 11.3 0.00 0.00 0.00 9 1030.4
20260830202403 11 303 4.8 11.3 0.00 0.00 0.00 9 1030.3
20260830201403 12 297 6.4 11.3 0.00 0.00 0.00 9 1030.2
20260830200403 12 278 3.2 9.7 0.00 0.00 0.00 8 1030.2
20260830195403 13 322 3.2 6.4 0.00 0.00 0.00 9 1029.9
20260830194403 13 0 0.0 4.8 0.00 0.00 0.00 9 1030.0
20260830193403 13 322 3.2 4.8 0.00 0.00 0.00 9 1029.9
20260830192403 13 322 3.2 4.8 0.00 0.00 0.00 9 1029.8
20260830191403 13 322 4.8 6.4 0.00 0.00 0.00 9 1029.7
20260830190402 13 322 1.6 4.8 0.00 0.00 0.00 9 1029.6
20260830185402 13 322 6.4 6.4 0.00 0.00 0.00 9 1029.6
20260830184402 13 322 4.8 8.0 0.00 0.00 0.00 9 1029.6
20260830183402 13 322 4.8 6.4 0.00 0.00 0.00 9 1029.6
20260830182402 13 0 0.0 0.0 0.00 0.00 0.00 9 1029.7
20260830181402 13 0 0.0 0.0 0.00 0.00 0.00 9 1029.9
20260830180402 13 0 0.0 0.0 0.00 0.00 0.00 9 1029.9
20260830175402 13 0 0.0 0.0 0.00 0.00 0.00 9 1029.9
20260830174402 13 0 0.0 0.0 0.00 0.00 0.00 9 1030.1
20260830173402 13 0 0.0 0.0 0.00 0.00 0.00 9 1030.0
20260830172402 13 0 0.0 0.0 0.00 0.00 0.00 9 1030.0
20260830171402 13 0 0.0 0.0 0.00 0.00 0.00 9 1030.1
20260830170402 13 0 0.0 0.0 0.00 0.00 0.00 9 1030.1
20260830165402 13 0 0.0 0.0 0.00 0.00 0.00 9 1030.2
20260830164401 13 0 0.0 0.0 0.00 0.00 0.00 9 1030.3
20260830163401 13 0 0.0 0.0 0.00 0.00 0.00 8 1030.3
20260830162401 13 0 0.0 0.0 0.00 0.00 0.00 8 1030.3
20260830161401 13 0 0.0 0.0 0.00 0.00 0.00 8 1030.5
20260830160401 13 0 0.0 0.0 0.00 0.00 0.00 8 1030.6
20260830155401 13 0 0.0 0.0 0.00 0.00 0.00 8 1030.6
20260830154401 13 0 0.0 0.0 0.00 0.00 0.00 8 1030.6
20260830153401 13 0 0.0 0.0 0.00 0.00 0.00 8 1030.7
20260830152401 13 0 0.0 0.0 0.00 0.00 0.00 8 1030.8
20260830151400 13 0 0.0 0.0 0.00 0.00 0.00 8 1030.7
20260830150400 13 0 0.0 0.0 0.00 0.00 0.00 8 1030.8
20260830145400 13 0 0.0 0.0 0.00 0.00 0.00 8 1030.9
20260830144400 13 0 0.0 0.0 0.00 0.00 0.00 8 1030.9
20260830143400 13 0 0.0 0.0 0.00 0.00 0.00 8 1031.0
20260830142400 13 0 0.0 0.0 0.00 0.00 0.00 8 1031.0
20260830141400 13 0 0.0 0.0 0.00 0.00 0.00 8 1031.0
20260830140400 13 0 0.0 0.0 0.00 0.00 0.00 8 1031.0
20260830135400 13 0 0.0 0.0 0.00 0.00 0.00 8 1031.0
20260830134400 13 0 0.0 0.0 0.00 0.00 0.00 8 1031.0
20260830133400 13 0 0.0 0.0 0.00 0.00 0.00 8 1031.0
20260830132359 13 0 0.0 4.8 0.00 0.00 0.00 7 1031.1
20260830131359 13 0 0.0 0.0 0.00 0.00 0.00 7 1031.2
20260830130359 13 0 0.0 0.0 0.00 0.00 0.00 7 1031.2
20260830125359 12 0 0.0 0.0 0.00 0.00 0.00 7 1031.1
20260830124359 12 0 0.0 0.0 0.00 0.00 0.00 7 1031.1
20260830123359 12 0 0.0 0.0 0.00 0.00 0.00 7 1030.9
20260830122359 14 0 0.0 4.8 0.00 0.00 0.00 7 1030.7
20260830121359 15 323 4.8 6.4 0.00 0.00 0.00 7 1030.6
20260830120359 15 324 4.8 8.0 0.00 0.00 0.00 7 1030.7
20260830115359 14 325 4.8 8.0 0.00 0.00 0.00 7 1030.7
20260830114358 14 328 4.8 6.4 0.00 0.00 0.00 7 1030.8
20260830113358 14 0 0.0 4.8 0.00 0.00 0.00 7 1030.8
20260830112358 14 330 6.4 8.0 0.00 0.00 0.00 7 1030.6
20260830111358 14 334 1.6 4.8 0.00 0.00 0.00 7 1030.8
20260830110358 14 334 4.8 6.4 0.00 0.00 0.00 8 1030.6
20260830105358 13 334 3.2 4.8 0.00 0.00 0.00 8 1030.6
20260830104357 13 0 0.0 6.4 0.00 0.00 0.00 8 1030.5
20260830103357 14 341 3.2 8.0 0.00 0.00 0.00 8 1030.3
20260830102357 14 345 8.0 8.0 0.00 0.00 0.00 8 1030.2
20260830101357 14 355 3.2 6.4 0.00 0.00 0.00 8 1030.3
20260830100357 14 357 6.4 6.4 0.00 0.00 0.00 8 1030.2
20260830095356 14 0 3.2 4.8 0.00 0.00 0.00 8 1030.0
20260830094356 14 1 6.4 8.0 0.00 0.00 0.00 8 1029.9
20260830093356 14 31 4.8 6.4 0.00 0.00 0.00 8 1029.9
20260830092356 14 34 3.2 4.8 0.00 0.00 0.00 8 1029.8
20260830091356 13 0 0.0 0.0 0.00 0.00 0.00 8 1029.8
20260830090356 14 34 1.6 3.2 0.00 0.00 0.00 8 1029.7
20260830085356 14 0 0.0 3.2 0.00 0.00 0.00 8 1029.8
20260830084356 14 0 0.0 3.2 0.00 0.00 0.00 8 1029.7
20260830083356 14 0 0.0 3.2 0.00 0.00 0.00 8 1029.4
20260830082356 14 0 0.0 0.0 0.00 0.00 0.00 8 1029.5
20260830081356 13 0 0.0 0.0 0.00 0.00 0.00 8 1029.4
20260830080356 13 0 0.0 0.0 0.00 0.00 0.00 8 1029.2
20260830075356 14 0 0.0 0.0 0.00 0.00 0.00 8 1029.2
20260830074355 14 0 0.0 0.0 0.00 0.00 0.00 8 1029.2
20260830073355 14 34 1.6 3.2 0.00 0.00 0.00 7 1029.1
20260830072355 15 0 0.0 0.0 0.00 0.00 0.00 7 1029.1
20260830071355 15 0 0.0 0.0 0.00 0.00 0.00 7 1029.1
20260830070355 15 0 0.0 1.6 0.00 0.00 0.00 7 1029.0
20260830065355 15 0 0.0 0.0 0.00 0.00 0.00 7 1028.9
20260830064355 15 0 0.0 3.2 0.00 0.00 0.00 7 1029.0
20260830063355 15 34 3.2 4.8 0.00 0.00 0.00 7 1029.0
20260830062355 16 36 1.6 4.8 0.00 0.00 0.00 7 1029.0
20260830061355 16 0 0.0 1.6 0.00 0.00 0.00 7 1029.0
20260830060355 16 36 1.6 6.4 0.00 0.00 0.00 7 1029.0
20260830055355 16 35 3.2 8.0 0.00 0.00 0.00 7 1029.0
20260830054355 16 32 3.2 8.0 0.00 0.00 0.00 7 1029.0
20260830053355 17 25 6.4 6.4 0.00 0.00 0.00 7 1029.1
20260830052355 17 31 4.8 11.3 0.00 0.00 0.00 7 1029.1
20260830051355 17 45 8.0 9.7 0.00 0.00 0.00 7 1029.1
20260830050355 17 87 3.2 9.7 0.00 0.00 0.00 7 1029.1
20260830045355 17 88 4.8 6.4 0.00 0.00 0.00 7 1029.1
20260830044355 17 85 6.4 8.0 0.00 0.00 0.00 7 1029.1
20260830043355 17 85 3.2 6.4 0.00 0.00 0.00 7 1029.1
20260830042355 17 52 3.2 11.3 0.00 0.00 0.00 7 1029.1
20260830041354 17 41 3.2 12.9 0.00 0.00 0.00 7 1029.2
20260830040354 17 77 6.4 11.3 0.00 0.00 0.00 7 1029.2